This is the latest recevied weather packets stored in our database for station/object N8SHA. If no packets are shown the sender has not sent any weather packets the latest 10 day(s).
| Time | Temp. | Humidity | Pressure | Rain* | Wind** | Luminosity | Snow |
|---|---|---|---|---|---|---|---|
| 1777651390 | 7.78° C | 59% | 1014 hPa | 0 mm | - | 288 W/m² | - |
| 1777651088 | 7.78° C | 61% | 1014 hPa | 0 mm | - | 314 W/m² | - |
| 1777650785 | 7.78° C | 56% | 1013.8 hPa | 0 mm | - | 280 W/m² | - |
| 1777650481 | 7.78° C | 61% | 1013.9 hPa | 0 mm | - | 337 W/m² | - |
| 1777650179 | 8.33° C | 59% | 1013.9 hPa | 0 mm | - | 255 W/m² | - |
| 1777649876 | 8.89° C | 63% | 1013.8 hPa | 0 mm | - | 417 W/m² | - |
| 1777649574 | 8.33° C | 64% | 1013.8 hPa | 0 mm | - | 479 W/m² | - |
| 1777649269 | 8.33° C | 64% | 1014 hPa | 0 mm | - | 665 W/m² | - |
| 1777648967 | 8.33° C | 66% | 1013.9 hPa | 0 mm | - | 548 W/m² | - |
| 1777648664 | 8.33° C | 65% | 1013.8 hPa | 0 mm | - | 466 W/m² | - |
| 1777648359 | 8.33° C | 66% | 1013.9 hPa | 0 mm | - | 674 W/m² | - |
| 1777648056 | 7.22° C | 69% | 1013.8 hPa | 0 mm | - | 699 W/m² | - |
| 1777647752 | 7.78° C | 71% | 1014 hPa | 0 mm | - | 598 W/m² | - |
| 1777647449 | 7.22° C | 75% | 1013.8 hPa | 0 mm | - | 416 W/m² | - |
| 1777647147 | 7.22° C | 72% | 1013.9 hPa | 0 mm | - | 494 W/m² | - |
| 1777646843 | 7.22° C | 74% | 1014 hPa | 0 mm | - | 619 W/m² | - |
| 1777646539 | 6.67° C | 74% | 1014 hPa | 0 mm | - | 228 W/m² | - |
| 1777646235 | 7.22° C | 76% | 1014 hPa | 0 mm | - | 157 W/m² | - |
| 1777645933 | 7.22° C | 78% | 1013.9 hPa | 0 mm | - | 250 W/m² | - |
| 1777645629 | 6.67° C | 79% | 1014 hPa | 0 mm | - | 276 W/m² | - |
| 1777645325 | 6.11° C | 79% | 1014 hPa | 0 mm | - | 239 W/m² | - |
| 1777645021 | 5.56° C | 78% | 1013.9 hPa | 0 mm | - | 180 W/m² | - |
| 1777644718 | 6.11° C | 78% | 1013.9 hPa | 0 mm | - | 191 W/m² | - |
| 1777644415 | 6.11° C | 79% | 1014 hPa | 0 mm | - | 211 W/m² | - |
| 1777644111 | 6.11° C | 80% | 1013.9 hPa | 0 mm | - | 201 W/m² | - |
* Rain latest hour (hover to see other rain measurements)
** Current wind speed in m/s (hover to see current wind gust speed)